Location: Venise Bay
(45.0825°N, 73.1481°W)
Time: 00:25:42
(UTC-05:00)

ISS - Pass Details

Date: 03 December 2021
Orbit: 413 x 423 km, 51.6° (Epoch: 20 January)

Event Time Altitude Azimuth Distance (km) Brightness Sun altitude
Rises 18:55:06 0° 297° (WNW) 2,379 0.9 -28.1°
Reaches altitude 10° 18:57:16 10° 291° (WNW) 1,509 -0.2 -28.5°
Enters shadow 18:58:19 18° 284° (WNW) 1,107 -0.9 -28.7°
